Weather History for Avoca, PA

Change the Weather History Date:

Friday, April 25, 2014

  Actual Average Record
Temperature  
Mean Temperature 50 °F 52 °F  
Max Temperature 67 °F 63 °F 88 °F (1915)
Min Temperature 32 °F 41 °F 23 °F (1919)
Degree Days  
Heating Degree Days 15 13  
Month to date heating degree days 418 436  
Since 1 July heating degree days 6284 5913  
Cooling Degree Days 0 0  
Month to date cooling degree days 7 0  
Year to date cooling degree days 7 0  
Moisture  
Dew Point 25 °F    
Average Humidity 51    
Maximum Humidity 86    
Minimum Humidity 15    
Precipitation  
Precipitation 0.11 in 0.11 in 0.85 in (2010)
Month to date precipitation 2.02 2.77  
Year to date precipitation 8.97 9.72  
Sea Level Pressure  
Sea Level Pressure 29.89 in    
Wind  
Wind Speed 7 mph (South)    
Max Wind Speed 16 mph    
Max Gust Speed 28 mph    
Visibility 9 miles    
Events Rain    
T = Trace of Precipitation, MM = Missing Value Source: NWS Daily Summary

Daily Weather History Graph

Daily Weather History Graph

Search for Another Location

Airport:

Trip Planner

Search our weather history database for the weather conditions in past years. The results will help you decide how hot, cold, wet, or windy it might be!

Date:

Astronomy

Apr. 25, 2014 Rise Set
Actual Time 6:08 AM EDT 7:53 PM EDT
Civil Twilight 5:39 AM EDT 8:23 PM EDT
Nautical Twilight 5:03 AM EDT 8:59 PM EDT
Astronomical Twilight 4:24 AM EDT 9:37 PM EDT
Moon 3:57 AM EDT (4/25) 4:11 PM EDT (4/25)
Length of Visible Light 14h 44m
Length of Day
13h 45m
Waning Crescent, 15% of the Moon is Illuminated
Apr 25
Waning Crescent
Apr 29
New
May 6
First Quarter
May 14
Full
May 21
Last Quarter

Hourly Weather History & Observations

Time (EDT) Temp. Windchill Dew Point Humidity Pressure Visibility Wind Dir Wind Speed Gust Speed Precip Events Conditions
12:54 AM 42.1 °F - 17.1 °F 37% 30.04 in 10.0 mi Calm Calm - N/A   Clear
1:54 AM 39.0 °F 35.7 °F 18.0 °F 43% 30.04 in 10.0 mi Variable 4.6 mph - N/A   Clear
2:54 AM 37.9 °F 33.5 °F 18.0 °F 45% 30.01 in 10.0 mi Variable 5.8 mph - N/A   Clear
3:54 AM 32.0 °F 24.8 °F 19.0 °F 59% 30.02 in 10.0 mi South 8.1 mph - N/A   Clear
4:54 AM 35.1 °F 30.1 °F 19.0 °F 52% 30.02 in 10.0 mi Variable 5.8 mph - N/A   Clear
5:54 AM 36.0 °F 30.3 °F 19.0 °F 50% 30.01 in 10.0 mi ENE 6.9 mph - N/A   Clear
6:54 AM 36.0 °F 32.1 °F 23.0 °F 59% 30.02 in 10.0 mi Variable 4.6 mph - N/A   Mostly Cloudy
7:54 AM 41.0 °F 37.1 °F 21.2 °F 45% 30.00 in 10.0 mi Variable 5.8 mph - N/A   Mostly Cloudy
8:54 AM 46.0 °F 42.5 °F 23.0 °F 40% 30.00 in 10.0 mi NE 6.9 mph - N/A   Partly Cloudy
9:54 AM 55.0 °F - 18.0 °F 23% 29.97 in 10.0 mi Variable 5.8 mph - N/A   Clear
10:54 AM 59.0 °F - 12.0 °F 16% 29.94 in 10.0 mi South 11.5 mph 18.4 mph N/A   Clear
11:54 AM 61.0 °F - 15.1 °F 17% 29.92 in 10.0 mi South 9.2 mph 17.3 mph N/A   Partly Cloudy
12:54 PM 63.0 °F - 17.1 °F 17% 29.89 in 10.0 mi South 6.9 mph 21.9 mph N/A   Clear
1:54 PM 64.0 °F - 21.0 °F 19% 29.85 in 10.0 mi South 9.2 mph 20.7 mph N/A   Clear
2:54 PM 64.9 °F - 23.0 °F 20% 29.81 in 10.0 mi South 9.2 mph 20.7 mph N/A   Clear
3:54 PM 64.0 °F - 25.0 °F 23% 29.77 in 10.0 mi South 12.7 mph 20.7 mph N/A   Clear
4:54 PM 63.0 °F - 26.1 °F 25% 29.75 in 10.0 mi South 13.8 mph 27.6 mph N/A   Partly Cloudy
5:54 PM 62.1 °F - 27.0 °F 26% 29.75 in 9.0 mi SSW 10.4 mph 26.5 mph 0.00 in Rain Light Rain
6:54 PM 55.0 °F - 37.9 °F 53% 29.76 in 6.0 mi SW 4.6 mph 18.4 mph 0.01 in Rain Light Rain
7:54 PM 50.0 °F - 42.1 °F 74% 29.77 in 6.0 mi South 9.2 mph 16.1 mph 0.04 in Rain Light Rain
8:54 PM 48.9 °F - 43.0 °F 80% 29.76 in 9.0 mi Variable 4.6 mph - 0.03 in Rain Light Rain
9:54 PM 48.0 °F - 42.1 °F 80% 29.75 in 10.0 mi Variable 5.8 mph - 0.00 in   Overcast
10:54 PM 46.9 °F - 42.1 °F 83% 29.74 in 7.0 mi West 4.6 mph - 0.02 in Rain Light Rain
11:54 PM 46.0 °F 44.8 °F 42.1 °F 86% 29.73 in 7.0 mi SW 3.5 mph - 0.01 in Rain Light Rain